1519117200.15,57212,11.38,72704.5,-6.69,-24.25,-23.75,0,*58
1519117201.39,57213,11.38,72706.8,-6.69,-24.41,-23.89,0,*58
1519117202.6,57214,11.38,72708.8,-6.69,-24.35,-23.75,0,*5F
1519117203.87,57215,11.31,72708.5,-6.69,-24.11,-23.49,0,*57
1519117205.13,57216,11.38,72706.3,-6.69,-24.21,-23.49,0,*57
1519117206.37,57217,11.38,72704.0,-6.69,-24.41,-23.89,0,*5C
1519117207.58,57218,11.38,72704.0,-6.69,-24.35,-23.89,0,*50
1519117208.82,57219,11.38,72706.0,-6.69,-24.11,-23.75,0,*54
1519117210.05,57220,11.31,72704.8,-6.67,-23.89,-23.39,0,*5E
1519117211.32,57221,11.38,72704.3,-6.67,-24.83,-24.31,0,*5D
1519117212.56,57222,11.31,72704.8,-6.65,-24.47,-23.85,0,*5C
1519117213.82,57223,11.38,72704.3,-6.65,-23.69,-23.33,0,*5B
1519117215.1,57224,11.31,72704.3,-6.67,-24.15,-23.53,0,*54
1519117216.33,57225,11.38,72706.0,-6.65,-23.99,-23.39,0,*58
1519117217.59,57226,11.38,72704.0,-6.65,-24.15,-23.69,0,*5D
1519117218.85,57227,11.38,72706.8,-6.65,-24.21,-23.69,0,*5B
1519117220.09,57228,11.38,72706.3,-6.65,-24.21,-23.59,0,*57
1519117221.31,57229,11.38,72704.8,-6.65,-24.05,-23.43,0,*5B
1519117222.57,57230,11.31,72700.5,-6.63,-24.47,-23.95,0,*58
1519117223.83,57231,11.31,72706.0,-6.63,-24.77,-24.25,0,*56
1519117225.09,57232,11.31,72702.5,-6.63,-24.47,-24.11,0,*51
1519117226.35,57233,11.31,72700.8,-6.63,-23.95,-23.39,0,*55
1519117227.63,57234,11.38,72706.3,-6.63,-23.99,-23.49,0,*59
1519117228.92,57235,11.38,72702.0,-6.63,-24.25,-23.53,0,*53
1519117230.18,57236,11.38,72704.5,-6.61,-24.25,-23.65,0,*57
1519117231.42,57237,11.31,72702.0,-6.61,-24.47,-23.95,0,*5D
1519117232.68,57238,11.38,72704.8,-6.61,-24.11,-23.49,0,*50
1519117233.9,57239,11.38,72704.8,-6.61,-24.93,-24.41,0,*54
1519117235.16,57240,11.38,72700.5,-6.61,-24.41,-23.85,0,*5A
1519117236.37,57241,11.38,72704.0,-6.61,-24.31,-23.79,0,*5F
1519117237.62,57242,11.38,72704.0,-6.61,-24.51,-23.85,0,*59
1519117238.88,57243,11.38,72704.0,-6.61,-24.25,-23.95,0,*5A
1519117240.11,57244,11.38,72704.3,-6.59,-24.47,-23.95,0,*52
1519117241.36,57245,11.38,72708.3,-6.59,-24.41,-23.79,0,*57
1519117242.62,57246,11.38,72706.0,-6.59,-24.25,-23.65,0,*5B
1519117243.87,57247,11.38,72704.5,-6.59,-24.25,-23.75,0,*5B
1519117245.11,57248,11.38,72704.8,-6.59,-24.41,-23.89,0,*55
1519117246.35,57249,11.38,72700.3,-6.59,-24.41,-23.89,0,*54
1519117247.59,57250,11.38,72704.3,-6.59,-24.77,-24.25,0,*58
1519117248.83,57251,11.38,72702.0,-6.59,-24.77,-24.21,0,*5D
1519117250.07,57252,11.31,72700.3,-6.59,-24.57,-24.11,0,*5F
1519117251.33,57253,11.31,72698.3,-6.59,-24.25,-23.65,0,*5F
1519117252.57,57254,11.38,72702.3,-6.57,-24.35,-23.79,0,*5A
1519117253.83,57255,11.38,72698.5,-6.57,-24.93,-24.41,0,*5B
1519117255.06,57256,11.31,72702.0,-6.57,-25.09,-24.57,0,*5D
1519117256.32,57257,11.38,72702.0,-6.59,-25.45,-24.87,0,*57
1519117257.55,57258,11.31,72698.0,-6.59,-25.23,-24.71,0,*51
1519117258.77,57259,11.38,72700.3,-6.59,-24.61,-24.05,0,*54
1519117259.97,57260,11.31,72694.8,-6.59,-24.93,-24.47,0,*55
1519117261.17,57261,11.38,72696.0,-6.61,-24.93,-24.31,0,*5E
1519117262.39,57262,11.38,72696.3,-6.61,-24.61,-24.11,0,*52
1519117263.64,57263,11.38,72696.0,-6.61,-25.29,-24.67,0,*5F
1519117264.88,57264,11.38,72700.0,-6.63,-26.49,-26.07,0,*5B
1519117266.1,57265,11.38,72698.8,-6.61,-26.07,-25.49,0,*5B
1519117267.36,57266,11.38,72696.3,-6.63,-26.39,-25.97,0,*54
1519117268.62,57267,11.38,72702.8,-6.63,-26.93,-26.45,0,*59
1519117269.91,57268,11.38,72704.8,-6.67,-26.29,-25.71,0,*57
1519117271.19,57269,11.38,72700.8,-6.67,-27.19,-26.71,0,*57
1519117272.4,57270,11.38,72704.8,-6.69,-25.87,-25.19,0,*59
1519117273.64,57271,11.38,72696.0,-6.69,-25.55,-24.93,0,*54
1519117274.86,57272,11.38,72704.0,-6.73,-25.87,-25.23,0,*59
1519117276.06,57273,11.38,72702.8,-6.73,-24.93,-24.51,0,*58
1519117277.34,57274,11.38,72706.3,-6.73,-24.71,-24.25,0,*50
1519117278.54,57275,11.38,72704.3,-6.69,-25.35,-24.77,0,*5C
1519117279.76,57276,11.38,72702.3,-6.69,-25.87,-25.35,0,*51
1519117280.96,57277,11.38,72704.3,-6.69,-25.19,-24.57,0,*52
1519117282.19,57278,11.38,72698.3,-6.69,-24.61,-24.11,0,*51
1519117283.4,57279,11.38,72700.0,-6.73,-25.09,-24.61,0,*53
1519117284.64,57280,11.38,72702.3,-6.73,-25.49,-24.87,0,*59
1519117285.85,57281,11.38,72702.5,-6.73,-24.77,-24.35,0,*5D
1519117287.09,57282,11.38,72700.5,-6.69,-25.03,-24.51,0,*55
1519117288.3,57283,11.38,72698.8,-6.69,-24.57,-23.89,0,*56
1519117289.52,57284,11.38,72694.8,-6.69,-26.03,-25.39,0,*5F
1519117290.76,57285,11.38,72704.0,-6.69,-25.75,-25.23,0,*57
1519117291.95,57286,11.38,72700.3,-6.69,-24.93,-24.35,0,*5B
1519117293.16,57287,11.38,72700.5,-6.69,-25.09,-24.51,0,*5A
1519117294.42,57288,11.38,72702.5,-6.69,-24.71,-24.11,0,*5F
1519117295.66,57289,11.38,72702.8,-6.69,-24.41,-23.89,0,*5B
1519117296.86,57290,11.38,72704.5,-6.69,-24.93,-24.51,0,*5E
1519117298.1,57291,11.38,72706.8,-6.73,-25.35,-24.71,0,*5B
1519117299.33,57292,11.38,72704.3,-6.67,-25.13,-24.57,0,*5D
1519117300.54,57293,11.38,72704.8,-6.69,-25.09,-24.51,0,*5F
1519117301.75,57294,11.38,72706.8,-6.69,-24.77,-24.35,0,*52
1519117302.99,57295,11.38,72704.5,-6.67,-24.47,-23.89,0,*5E
1519117304.26,57296,11.38,72704.8,-6.67,-24.35,-23.85,0,*54
1519117305.53,57297,11.38,72704.3,-6.67,-24.35,-23.85,0,*55
1519117306.74,57298,11.38,72706.3,-6.65,-24.51,-23.89,0,*56
1519117307.98,57299,11.38,72700.8,-6.65,-24.47,-23.99,0,*51
1519117309.23,57300,11.38,72702.0,-6.65,-24.15,-23.53,0,*51
1519117310.49,57301,11.38,72700.3,-6.67,-25.35,-24.87,0,*5F
1519117311.72,57302,11.38,72700.0,-6.65,-25.45,-24.97,0,*58
1519117312.92,57303,11.38,72704.8,-6.65,-24.97,-24.35,0,*5F
1519117314.18,57304,11.38,72702.8,-6.65,-24.67,-24.15,0,*55
1519117315.46,57305,11.38,72710.5,-6.67,-25.29,-24.71,0,*5F
1519117316.68,57306,11.38,72702.3,-6.65,-25.65,-25.13,0,*53
1519117317.94,57307,11.38,72702.0,-6.67,-25.65,-25.03,0,*51
1519117319.17,57308,11.38,72700.0,-6.65,-25.87,-25.45,0,*52
1519117320.41,57309,11.38,72702.5,-6.67,-25.19,-24.57,0,*54
1519117321.66,57310,11.38,72704.0,-6.65,-25.29,-24.83,0,*54
1519117322.94,57311,11.38,72698.5,-6.67,-25.45,-24.87,0,*59
1519117324.22,57312,11.38,72704.5,-6.67,-25.45,-24.87,0,*5A
1519117325.43,57313,11.38,72708.8,-6.69,-25.19,-24.61,0,*54
1519117326.69,57314,11.38,72706.5,-6.69,-25.55,-25.03,0,*5E
1519117327.93,57315,11.38,72708.3,-6.69,-25.75,-25.19,0,*56
1519117329.17,57316,11.38,72706.8,-6.69,-25.71,-25.19,0,*51
1519117330.43,57317,11.38,72706.3,-6.67,-25.35,-24.87,0,*58
1519117331.65,57318,11.38,72704.0,-6.73,-26.03,-25.39,0,*50
1519117332.86,57319,11.38,72704.3,-6.73,-25.61,-25.19,0,*54
1519117334.08,57320,11.38,72704.5,-6.73,-25.39,-24.93,0,*50
1519117335.29,57321,11.38,72704.5,-6.73,-25.09,-24.57,0,*5A
1519117336.52,57322,11.38,72704.8,-6.73,-25.35,-24.87,0,*5B
1519117337.75,57323,11.38,72704.3,-6.73,-26.03,-25.49,0,*5F
1519117338.99,57324,11.38,72706.0,-6.75,-25.65,-25.23,0,*51
1519117340.26,57325,11.38,72706.0,-6.75,-25.55,-25.09,0,*5B
1519117341.53,57326,11.38,72704.5,-6.75,-26.39,-25.97,0,*56
1519117342.73,57327,11.38,72702.5,-6.77,-26.39,-25.91,0,*53
1519117343.96,57328,11.38,72706.5,-6.77,-25.45,-24.97,0,*53
1519117345.2,57329,11.38,72704.8,-6.77,-25.81,-25.39,0,*5F
1519117346.44,57330,11.38,72704.8,-6.77,-26.23,-25.75,0,*54
1519117347.67,57331,11.38,72704.8,-6.77,-26.29,-25.91,0,*55
1519117348.95,57332,11.38,72700.8,-6.79,-25.45,-24.83,0,*53
1519117350.16,57333,11.38,72700.0,-6.81,-25.19,-24.61,0,*50
1519117351.39,57334,11.38,72704.8,-6.79,-25.13,-24.47,0,*5E
1519117352.65,57335,11.38,72700.5,-6.79,-25.19,-24.67,0,*57
1519117353.91,57336,11.38,72702.3,-6.79,-24.83,-24.31,0,*55
1519117355.14,57337,11.38,72702.0,-6.77,-24.61,-24.15,0,*50
1519117356.42,57338,11.38,72700.3,-6.75,-24.67,-24.15,0,*5B
1519117357.66,57339,11.38,72706.8,-6.77,-24.57,-23.99,0,*58
1519117358.9,57340,11.38,72704.0,-6.75,-25.65,-25.23,0,*53
1519117360.15,57341,11.38,72706.0,-6.75,-24.93,-24.41,0,*5F
1519117361.41,57342,11.38,72700.5,-6.75,-24.57,-23.99,0,*56
1519117362.65,57343,11.38,72702.0,-6.73,-24.61,-24.21,0,*50
1519117363.86,57344,11.38,72700.8,-6.73,-25.23,-24.61,0,*54
1519117365.1,57345,11.38,72698.8,-6.73,-24.77,-24.25,0,*55
1519117366.32,57346,11.38,72702.3,-6.73,-24.35,-23.89,0,*51
1519117367.55,57347,11.38,72706.0,-6.73,-24.87,-24.35,0,*59
1519117368.79,57348,11.38,72706.0,-6.73,-24.41,-23.89,0,*5C
1519117370.06,57349,11.38,72704.8,-6.69,-24.71,-24.11,0,*53
1519117371.27,57350,11.38,72702.5,-6.69,-24.51,-24.05,0,*5C
1519117372.56,57351,11.38,72700.0,-6.67,-24.67,-24.15,0,*57
1519117373.82,57352,11.38,72700.8,-6.67,-24.83,-24.31,0,*58
1519117375.11,57353,11.38,72706.0,-6.67,-24.71,-24.15,0,*52
1519117376.38,57354,11.38,72704.8,-6.67,-24.71,-24.05,0,*54
1519117377.68,57355,11.38,72704.3,-6.67,-24.67,-24.21,0,*54
1519117378.92,57356,11.38,72706.3,-6.65,-24.83,-24.31,0,*5E
1519117380.13,57357,11.38,72704.0,-6.65,-24.31,-23.75,0,*51
1519117381.4,57358,11.38,72702.3,-6.65,-24.21,-23.85,0,*50
1519117382.66,57359,11.38,72702.3,-6.63,-24.31,-23.95,0,*57
1519117383.95,57360,11.38,72702.0,-6.63,-24.25,-23.99,0,*54
1519117385.15,57361,11.38,72702.5,-6.61,-25.23,-24.77,0,*57
1519117386.39,57362,11.38,72704.5,-6.61,-24.77,-24.41,0,*51
1519117387.62,57363,11.38,72706.5,-6.61,-24.51,-24.11,0,*51
1519117388.85,57364,11.38,72704.8,-6.61,-24.61,-24.15,0,*51
1519117390.08,57365,11.38,72702.5,-6.61,-24.51,-24.11,0,*57
1519117391.31,57366,11.38,72700.5,-6.59,-24.87,-24.35,0,*52
1519117392.53,57367,11.38,72706.5,-6.59,-25.61,-25.19,0,*55
1519117393.78,57368,11.38,72708.0,-6.59,-26.03,-25.55,0,*55
1519117394.98,57369,11.38,72702.3,-6.61,-25.39,-24.93,0,*5E
1519117396.19,57370,11.38,72700.0,-6.59,-25.23,-24.77,0,*5C
1519117397.39,57371,11.38,72704.8,-6.59,-24.93,-24.47,0,*54
1519117398.61,57372,11.38,72704.0,-6.61,-24.93,-24.41,0,*5A
1519117399.81,57373,11.38,72704.3,-6.61,-24.93,-24.47,0,*5D
1519117401.02,57374,11.38,72700.3,-6.61,-25.13,-24.61,0,*57
1519117402.22,57375,11.38,72700.5,-6.61,-24.97,-24.47,0,*5F
1519117403.47,57376,11.38,72700.8,-6.59,-24.61,-24.21,0,*5E
1519117404.73,57377,11.38,72702.3,-6.59,-24.87,-24.25,0,*53
1519117405.96,57378,11.38,72702.5,-6.59,-24.87,-24.35,0,*5D
1519117407.17,57379,11.38,72700.5,-6.59,-24.93,-24.47,0,*5C
1519117408.38,57380,11.38,72702.8,-6.59,-24.77,-24.35,0,*55
1519117409.59,57381,11.38,72704.0,-6.59,-25.87,-25.23,0,*5C
1519117410.83,57382,11.38,72698.8,-6.59,-25.91,-25.55,0,*59
1519117412.07,57383,11.38,72706.5,-6.59,-25.39,-25.03,0,*59
1519117413.29,57384,11.38,72700.0,-6.61,-25.09,-24.67,0,*55
1519117414.49,57385,11.38,72704.0,-6.59,-24.93,-24.35,0,*5A
1519117415.7,57386,11.38,72700.8,-6.59,-24.93,-24.47,0,*5C
1519117416.91,57387,11.38,72702.3,-6.59,-24.77,-24.35,0,*52
1519117418.11,57388,11.38,72704.8,-6.59,-25.35,-24.93,0,*56
1519117419.32,57389,11.38,72704.3,-6.59,-25.23,-24.77,0,*5A
1519117420.57,57390,11.38,72700.0,-6.59,-24.71,-24.35,0,*52
1519117421.83,57391,11.38,72702.5,-6.57,-24.57,-24.11,0,*5F
1519117423.09,57392,11.38,72702.5,-6.57,-24.61,-24.25,0,*5E
1519117424.38,57393,11.38,72706.3,-6.57,-25.03,-24.71,0,*5B
1519117425.64,57394,11.38,72700.0,-6.57,-24.87,-24.35,0,*51
1519117426.9,57395,11.38,72706.3,-6.57,-25.45,-25.19,0,*50
1519117428.13,57396,11.38,72700.0,-6.55,-25.35,-24.87,0,*50
1519117429.34,57397,11.38,72704.8,-6.59,-24.77,-24.35,0,*53
1519117430.63,57398,11.38,72706.5,-6.57,-24.87,-24.41,0,*5E
1519117431.86,57399,11.38,72708.3,-6.55,-25.03,-24.57,0,*57
1519117433.14,57400,11.38,72704.0,-6.55,-24.71,-24.21,0,*55
1519117434.39,57401,11.38,72700.0,-6.55,-24.71,-24.31,0,*55
1519117435.65,57402,11.38,72702.3,-6.53,-24.83,-24.31,0,*5D
1519117436.92,57403,11.38,72704.0,-6.53,-25.29,-25.03,0,*5D
1519117438.19,57404,11.38,72702.3,-6.53,-25.71,-25.19,0,*5C
1519117439.43,57405,11.38,72706.0,-6.55,-25.55,-25.19,0,*5D
1519117440.63,57406,11.38,72704.3,-6.55,-25.35,-24.97,0,*5F
1519117441.84,57407,11.38,72706.0,-6.55,-25.35,-24.97,0,*5E
1519117443.07,57408,11.38,72700.3,-6.55,-25.13,-24.67,0,*5A
1519117444.31,57409,11.38,72704.5,-6.55,-25.13,-24.71,0,*5C
1519117445.54,57410,11.38,72704.5,-6.53,-24.97,-24.57,0,*5B
1519117446.78,57411,11.38,72706.8,-6.55,-24.83,-24.35,0,*5D
1519117448.04,57412,11.38,72706.3,-6.53,-24.71,-24.35,0,*55
1519117449.29,57413,11.38,72704.8,-6.55,-24.71,-24.31,0,*56
1519117450.54,57414,11.38,72706.8,-6.53,-24.83,-24.35,0,*5E
1519117451.79,57415,11.38,72706.5,-6.55,-24.71,-24.31,0,*50
1519117453.06,57416,11.38,72704.0,-6.53,-24.71,-24.31,0,*55
1519117454.29,57417,11.38,72708.0,-6.55,-25.03,-24.57,0,*56
1519117455.55,57418,11.38,72704.8,-6.47,-24.41,-23.95,0,*54
1519117456.76,57419,11.38,72708.8,-6.51,-25.23,-24.77,0,*5C
1519117457.97,57420,11.38,72708.3,-6.51,-25.65,-25.23,0,*54
1519117459.18,57421,11.38,72706.5,-6.51,-25.49,-25.09,0,*53
1519117460.41,57422,11.38,72706.3,-6.51,-25.09,-24.67,0,*5D
1519117461.64,57423,11.38,72704.3,-6.51,-24.47,-24.11,0,*56
1519117462.85,57424,11.38,72710.8,-6.51,-24.77,-24.31,0,*50
1519117464.06,57425,11.38,72706.0,-6.51,-24.77,-24.31,0,*51
1519117465.3,57426,11.38,72706.5,-6.51,-25.45,-25.09,0,*58
1519117466.54,57427,11.38,72708.0,-6.47,-25.75,-25.39,0,*5E
1519117467.77,57428,11.38,72706.8,-6.51,-25.81,-25.35,0,*51
1519117468.98,57429,11.38,72704.5,-6.51,-25.91,-25.49,0,*5A
1519117470.19,57430,11.38,72706.8,-6.51,-24.97,-24.51,0,*5D
1519117471.4,57431,11.38,72710.3,-6.51,-25.65,-25.35,0,*53
1519117472.61,57432,11.38,72708.0,-6.51,-25.61,-25.09,0,*5B
1519117473.82,57433,11.38,72704.0,-6.51,-24.77,-24.31,0,*56
1519117475.02,57434,11.38,72706.0,-6.51,-24.93,-24.61,0,*5E
1519117476.23,57435,11.38,72706.5,-6.47,-24.77,-24.47,0,*56
1519117477.46,57436,11.38,72708.3,-6.47,-24.87,-24.47,0,*5A
1519117478.7,57437,11.38,72710.3,-6.47,-24.61,-24.25,0,*57
1519117479.96,57438,11.38,72706.8,-6.51,-24.87,-24.41,0,*55
1519117481.16,57439,11.38,72706.3,-6.47,-25.09,-24.77,0,*51
1519117482.4,57440,11.38,72706.5,-6.47,-25.55,-25.19,0,*5F
1519117483.61,57441,11.38,72710.3,-6.47,-25.61,-25.09,0,*58
1519117484.82,57442,11.38,72708.3,-6.47,-25.09,-24.47,0,*5E
1519117486.09,57443,11.38,72706.0,-6.45,-25.45,-25.03,0,*54
1519117487.33,57444,11.38,72708.8,-6.45,-25.09,-24.77,0,*59
1519117488.62,57445,11.38,72710.0,-6.45,-24.71,-24.25,0,*51
1519117489.87,57446,11.38,72708.5,-6.45,-25.45,-25.09,0,*5B
1519117491.1,57447,11.38,72706.8,-6.45,-25.09,-24.61,0,*5D
1519117492.36,57448,11.38,72708.3,-6.45,-25.39,-25.03,0,*54
1519117493.62,57449,11.38,72704.5,-6.45,-25.61,-25.29,0,*50
1519117494.86,57450,11.38,72706.0,-6.45,-25.87,-25.61,0,*5C
1519117496.11,57451,11.38,72704.3,-6.47,-25.29,-24.87,0,*52
1519117497.38,57452,11.38,72708.3,-6.45,-24.57,-24.21,0,*57
1519117498.63,57453,11.38,72708.0,-6.45,-24.57,-24.11,0,*55
1519117499.88,57454,11.38,72708.0,-6.43,-24.41,-24.11,0,*53
1519117501.12,57455,11.38,72710.3,-6.43,-24.77,-24.41,0,*52
1519117502.31,57456,11.38,72710.3,-6.43,-24.93,-24.57,0,*5C
1519117503.57,57457,11.38,72706.8,-6.41,-24.83,-24.47,0,*5F
1519117504.84,57458,11.38,72710.8,-6.43,-24.71,-24.25,0,*5B
1519117506.05,57459,11.38,72706.0,-6.43,-24.77,-24.31,0,*59
1519117507.3,57460,11.38,72706.0,-6.41,-25.23,-24.87,0,*5C
1519117508.56,57461,11.38,72708.0,-6.41,-25.81,-25.49,0,*56
1519117509.82,57462,11.38,72708.0,-6.41,-25.55,-25.23,0,*50
1519117511.05,57463,11.38,72704.8,-6.41,-24.97,-24.51,0,*5A
1519117512.31,57464,11.38,72704.0,-6.41,-24.87,-24.57,0,*5A
1519117513.59,57465,11.38,72704.0,-6.41,-24.67,-24.25,0,*50
1519117514.82,57466,11.38,72708.3,-6.41,-24.97,-24.57,0,*59
1519117516.08,57467,11.38,72706.3,-6.39,-25.03,-24.71,0,*5F
1519117517.31,57468,11.38,72708.5,-6.39,-24.87,-24.57,0,*59
1519117518.54,57469,11.38,72708.8,-6.39,-24.57,-24.15,0,*53
1519117519.75,57470,11.38,72704.5,-6.39,-24.51,-24.05,0,*5C
1519117521.01,57471,11.38,72708.5,-6.39,-25.81,-25.55,0,*55
1519117522.25,57472,11.38,72704.8,-6.39,-25.55,-25.23,0,*5E
1519117523.52,57473,11.38,72710.0,-6.39,-24.71,-24.41,0,*5D
1519117524.79,57474,11.38,72704.3,-6.39,-24.71,-24.41,0,*5A
1519117526.02,57475,11.38,72704.5,-6.39,-24.87,-24.51,0,*53
1519117527.25,57476,11.38,72710.5,-6.39,-25.23,-24.87,0,*54
1519117528.47,57477,11.38,72704.3,-6.37,-25.19,-24.93,0,*57
1519117529.72,57478,11.38,72708.3,-6.37,-25.19,-24.83,0,*59
1519117530.95,57479,11.38,72706.3,-6.37,-24.77,-24.47,0,*59
1519117532.19,57480,11.38,72708.5,-6.35,-25.71,-25.39,0,*52
1519117533.43,57481,11.38,72704.0,-6.39,-25.55,-25.23,0,*52
1519117534.68,57482,11.38,72708.5,-6.37,-24.61,-24.15,0,*5D
1519117535.96,57483,11.38,72708.8,-6.37,-24.41,-24.11,0,*5A
1519117537.2,57484,11.38,72710.0,-6.35,-24.71,-24.31,0,*5E
1519117538.43,57485,11.44,72710.8,-6.35,-25.13,-24.87,0,*57
1519117539.64,57486,11.38,72704.8,-6.35,-24.77,-24.47,0,*5B
1519117540.85,57487,11.38,72706.5,-6.35,-25.61,-25.39,0,*54
1519117542.09,57488,11.38,72706.5,-6.35,-25.09,-24.71,0,*58
1519117543.34,57489,11.38,72708.3,-6.35,-24.87,-24.41,0,*5D
1519117544.58,57490,11.38,72702.0,-6.35,-25.13,-24.87,0,*53
1519117545.78,57491,11.44,72708.3,-6.35,-25.91,-25.87,0,*59
1519117547.01,57492,11.38,72704.5,-6.35,-26.13,-25.91,0,*54
1519117548.23,57493,11.38,72710.0,-6.35,-25.87,-25.61,0,*54
1519117549.45,57494,11.44,72710.8,-6.37,-25.19,-24.93,0,*5A
1519117550.68,57495,11.38,72708.8,-6.35,-24.87,-24.47,0,*56
1519117551.89,57496,11.38,72708.0,-6.35,-25.23,-24.93,0,*53
1519117553.14,57497,11.38,72706.5,-6.37,-25.29,-24.97,0,*5E
1519117554.33,57498,11.38,72702.5,-6.35,-24.93,-24.61,0,*5A
1519117555.53,57499,11.38,72704.0,-6.35,-24.93,-24.61,0,*5B
1519117556.77,57500,11.38,72702.5,-6.35,-24.61,-24.41,0,*55
1519117558.0,57501,11.44,72706.0,-6.35,-25.13,-24.87,0,*5A
1519117559.21,57502,11.38,72700.0,-6.35,-24.77,-24.47,0,*56
1519117560.44,57503,11.38,72704.8,-6.33,-25.23,-24.77,0,*52
1519117561.67,57504,11.38,72704.8,-6.33,-25.39,-25.13,0,*5D
1519117562.92,57505,11.38,72706.8,-6.33,-25.45,-25.23,0,*54
1519117564.13,57506,11.38,72710.5,-6.35,-26.07,-25.87,0,*5A
1519117565.37,57507,11.44,72710.5,-6.35,-25.61,-25.29,0,*5C
1519117566.61,57508,11.38,72710.0,-6.35,-25.75,-25.61,0,*5A
1519117567.88,57509,11.38,72708.5,-6.35,-25.71,-25.55,0,*58
1519117569.12,57510,11.38,72702.3,-6.35,-26.13,-26.03,0,*57
1519117570.35,57511,11.38,72704.8,-6.37,-26.49,-26.45,0,*59
1519117571.58,57512,11.38,72708.0,-6.37,-26.65,-26.45,0,*54
1519117572.87,57513,11.38,72708.5,-6.37,-26.33,-26.13,0,*55
1519117574.1,57514,11.38,72704.5,-6.39,-25.81,-25.39,0,*5D
1519117575.32,57515,11.38,72708.8,-6.39,-25.49,-25.23,0,*53
1519117576.57,57516,11.38,72706.8,-6.37,-24.83,-24.51,0,*5D
1519117577.77,57517,11.44,72710.3,-6.35,-24.93,-24.77,0,*5B
1519117579.0,57518,11.38,72708.3,-6.37,-25.09,-24.77,0,*54
1519117580.25,57519,11.44,72704.0,-6.37,-25.29,-24.93,0,*5D
1519117581.49,57520,11.38,72704.5,-6.35,-25.61,-25.55,0,*52
1519117582.71,57521,11.38,72706.0,-6.37,-25.19,-24.93,0,*55
1519117583.96,57522,11.38,72708.8,-6.37,-25.65,-25.29,0,*5D
1519117585.19,57523,11.38,72704.0,-6.37,-25.19,-24.97,0,*53
1519117586.41,57524,11.38,72706.0,-6.35,-25.29,-24.93,0,*51
1519117587.67,57525,11.38,72706.5,-6.37,-25.13,-24.83,0,*5A
1519117588.9,57526,11.44,72708.3,-6.35,-25.23,-25.03,0,*51
1519117590.13,57527,11.38,72708.5,-6.35,-25.03,-24.77,0,*50
1519117591.37,57528,11.38,72706.3,-6.37,-25.65,-25.49,0,*51
1519117592.58,57529,11.44,72708.0,-6.35,-26.07,-26.03,0,*58
1519117593.79,57530,11.44,72708.0,-6.35,-25.87,-25.87,0,*54
1519117594.99,57531,11.38,72704.5,-6.35,-25.23,-24.93,0,*5F
1519117596.22,57532,11.38,72708.0,-6.37,-25.49,-25.35,0,*5F
1519117597.43,57533,11.38,72706.0,-6.35,-25.87,-25.87,0,*57
1519117598.72,57534,11.38,72704.0,-6.37,-26.33,-26.17,0,*54
1519117599.97,57535,11.44,72704.5,-6.37,-25.81,-25.65,0,*59
1519117601.23,57536,11.38,72706.8,-6.37,-25.45,-25.09,0,*58
1519117602.45,57537,11.38,72708.8,-6.37,-25.35,-25.19,0,*5F
1519117603.71,57538,11.38,72706.5,-6.33,-25.55,-25.23,0,*5B
1519117604.93,57539,11.44,72704.8,-6.37,-25.19,-24.97,0,*58
1519117606.19,57540,11.44,72706.5,-6.37,-25.65,-25.45,0,*53
1519117607.41,57541,11.44,72710.8,-6.37,-25.19,-24.93,0,*53
1519117608.66,57542,11.38,72708.3,-6.37,-25.45,-25.19,0,*5A
1519117609.89,57543,11.38,72708.3,-6.35,-25.61,-25.45,0,*56
1519117611.16,57544,11.44,72710.8,-6.35,-25.71,-25.55,0,*51
1519117612.36,57545,11.38,72708.8,-6.35,-25.39,-25.23,0,*5D
1519117613.62,57546,11.44,72710.3,-6.37,-26.45,-26.29,0,*5D
1519117614.88,57547,11.38,72706.0,-6.37,-26.77,-26.61,0,*51
1519117616.14,57548,11.44,72708.3,-6.37,-26.49,-26.29,0,*5F
1519117617.37,57549,11.38,72706.8,-6.39,-26.65,-26.55,0,*55
1519117618.6,57550,11.38,72706.0,-6.39,-26.23,-26.17,0,*59
1519117619.83,57551,11.38,72710.3,-6.41,-25.87,-25.87,0,*50
1519117621.07,57552,11.44,72710.0,-6.39,-26.23,-26.13,0,*5F
1519117622.29,57553,11.44,72710.5,-6.41,-25.35,-25.13,0,*56
1519117623.5,57554,11.44,72708.0,-6.39,-25.87,-25.87,0,*5A
1519117624.74,57555,11.44,72710.0,-6.39,-26.97,-26.87,0,*5A
1519117626.0,57556,11.38,72708.3,-6.41,-27.55,-27.39,0,*5D
1519117627.23,57557,11.44,72712.5,-6.43,-27.07,-26.93,0,*58
1519117628.49,57558,11.44,72710.8,-6.45,-26.77,-26.61,0,*5A
1519117629.78,57559,11.38,72706.0,-6.45,-26.55,-26.29,0,*57
1519117631.01,57560,11.38,72706.8,-6.45,-26.07,-26.03,0,*52
1519117632.24,57561,11.38,72706.0,-6.47,-26.55,-26.45,0,*54
1519117633.48,57562,11.38,72706.0,-6.51,-26.61,-26.33,0,*56
1519117634.69,57563,11.44,72710.3,-6.51,-26.65,-26.49,0,*5E
1519117635.93,57564,11.44,72708.5,-6.51,-26.81,-26.49,0,*53
1519117637.22,57565,11.44,72710.0,-6.53,-25.97,-25.71,0,*5C
1519117638.42,57566,11.38,72704.3,-6.51,-25.35,-25.35,0,*55
1519117639.64,57567,11.44,72708.8,-6.51,-25.65,-25.49,0,*5A
1519117640.85,57568,11.44,72708.8,-6.51,-25.13,-24.93,0,*52
1519117642.1,57569,11.38,72706.8,-6.47,-25.45,-25.29,0,*57
1519117643.34,57570,11.38,72704.5,-6.47,-26.39,-26.17,0,*59
1519117644.57,57571,11.44,72706.0,-6.51,-27.67,-27.61,0,*55
1519117645.81,57572,11.44,72708.8,-6.51,-27.29,-27.23,0,*5A
1519117647.05,57573,11.38,72706.3,-6.51,-26.61,-26.33,0,*56
1519117648.29,57574,11.44,72706.5,-6.55,-26.49,-26.29,0,*54
1519117649.58,57575,11.38,72708.5,-6.53,-26.29,-26.17,0,*58
1519117650.81,57576,11.44,72708.0,-6.53,-25.87,-25.65,0,*5A
1519117652.11,57577,11.38,72710.3,-6.53,-26.33,-26.33,0,*57
1519117653.34,57578,11.38,72710.0,-6.53,-26.39,-26.39,0,*58
1519117654.59,57579,11.44,72710.8,-6.55,-26.49,-26.33,0,*52
1519117655.83,57580,11.38,72708.3,-6.55,-26.49,-26.33,0,*54
1519117657.06,57581,11.44,72712.8,-6.55,-26.55,-26.49,0,*55
1519117658.3,57582,11.44,72710.0,-6.55,-26.87,-26.81,0,*5D
1519117659.58,57583,11.44,72708.8,-6.57,-27.35,-27.23,0,*5F
1519117660.82,57584,11.38,72706.0,-6.59,-26.93,-26.87,0,*54
1519117662.04,57585,11.38,72708.5,-6.59,-26.45,-26.39,0,*5B
1519117663.27,57586,11.44,72708.0,-6.57,-25.91,-25.87,0,*5A
1519117664.54,57587,11.44,72706.0,-6.57,-25.61,-25.55,0,*5B
1519117665.79,57588,11.44,72706.3,-6.59,-25.71,-25.61,0,*5C
1519117667.01,57589,11.44,72702.5,-6.59,-26.03,-25.91,0,*54
1519117668.28,57590,11.44,72710.3,-6.57,-25.55,-25.23,0,*5B
1519117669.54,57591,11.44,72708.3,-6.57,-25.09,-24.87,0,*5C
1519117670.8,57592,11.44,72712.3,-6.57,-25.19,-25.03,0,*53
1519117672.03,57593,11.44,72710.8,-6.55,-25.03,-24.97,0,*57
1519117673.31,57594,11.44,72706.8,-6.53,-25.03,-24.83,0,*53
1519117674.6,57595,11.44,72712.0,-6.53,-25.03,-24.83,0,*52
1519117675.87,57596,11.44,72704.8,-6.53,-25.29,-25.03,0,*50
1519117677.08,57597,11.38,72704.0,-6.47,-25.23,-25.19,0,*55
1519117678.28,57598,11.44,72704.5,-6.51,-26.23,-26.07,0,*52
1519117679.52,57599,11.44,72704.5,-6.51,-25.29,-25.09,0,*57
1519117680.76,57600,11.44,72710.5,-6.51,-24.83,-24.61,0,*5A
1519117682.0,57601,11.44,72706.3,-6.51,-24.71,-24.51,0,*55
1519117683.23,57602,11.44,72708.5,-6.47,-24.93,-24.71,0,*5F
1519117684.46,57603,11.44,72710.0,-6.47,-25.23,-25.03,0,*50
1519117685.7,57604,11.38,72710.0,-6.47,-25.55,-25.39,0,*5F
1519117686.93,57605,11.44,72712.0,-6.43,-25.09,-25.03,0,*5A
1519117688.15,57606,11.44,72712.0,-6.45,-25.23,-24.93,0,*5F
1519117689.39,57607,11.44,72704.0,-6.43,-25.29,-25.09,0,*50
1519117690.59,57608,11.44,72708.8,-6.43,-25.91,-25.87,0,*5A
1519117691.83,57609,11.44,72712.3,-6.43,-25.75,-25.61,0,*59
1519117693.05,57610,11.44,72712.3,-6.43,-24.93,-24.71,0,*58
1519117694.28,57611,11.44,72712.5,-6.43,-24.87,-24.61,0,*5D